Regional Weather Roundup
Issued by NWS Upton, NY

Current Version | Previous Version | Graphics & Text | Print | Product List | Glossary Off
Versions: 1 2 3 4 5 6 7 8 9 10 11 12 13 14 15 16 17 18 19 20 21 22 23 24 25 26 27

000
ASUS41 KOKX 290005
RWROKX

REGIONAL WEATHER ROUNDUP
NATIONAL WEATHER SERVICE NEW YORK NY
800 PM EDT SAT MAY 28 2016

NOTE: "FAIR" INDICATES FEW OR NO CLOUDS BELOW 12,000 FEET WITH NO
SIGNIFICANT WEATHER AND/OR OBSTRUCTIONS TO VISIBILITY.

NYZ071-072-176-178-NJZ106-104-290100-
NEW YORK CITY METRO AREA


CITY           SKY/WX    TMP DP  RH WIND       PRES   REMARKS
CENTRAL PARK   PTCLDY    82  65  56 CALM      30.11S
LAGUARDIA APRT MOCLDY    82  69  64 S5        30.08R
KENNEDY INTL   PTCLDY    71  58  63 S20       30.10R
NEWARK/LIBERTY PTCLDY    85  66  53 NW7       30.08R
BRNX BOT. GARD   N/A     77  68  73 N1        30.11R
TETERBORO      PTCLDY    83  64  52 CALM      30.07S
$$

NYZ177-179-078>081-290100-
LONG ISLAND NEW YORK

CITY           SKY/WX    TMP DP  RH WIND       PRES   REMARKS
FARMINGDALE    CLEAR     73  55  53 SW14      30.11S
ISLIP          PTCLDY    72  56  57 SW9G18    30.11S
SHIRLEY        CLEAR     72  56  57 SW10G20   30.13R
RIVERHEAD        N/A     72  59  64 SW3       30.11R
WESTHAMPTON    CLEAR     69  56  62 SW10G16   30.14S
EAST HAMPTON   FAIR      70  56  60 SW12G20   30.12S
MONTAUK POINT    N/A     69  56  62 SW12G23   30.13S
$$

NYZ052-065-067-290100-
HUDSON VALLEY

CITY           SKY/WX    TMP DP  RH WIND       PRES   REMARKS
WHITE PLAINS   PTCLDY    76  67  73 SE6       30.10R
NEWBURGH       PTCLDY    82  70  65 SW12      30.10R
MONTGOMERY     PTCLDY    80  69  69 SW9       30.08R
POUGHKEEPSIE   PTCLDY    85  67  54 SW3       30.06R
ALBANY         MOCLDY    88  59  37 CALM      30.05R
$$

NJZ001-105-106-008-010-013-015-019>022-104-290100-
NEW JERSEY

CITY           SKY/WX    TMP DP  RH WIND       PRES   REMARKS
NEWARK/LIBERTY PTCLDY    85  66  53 NW7       30.08R
TETERBORO      PTCLDY    83  64  52 CALM      30.07S
CALDWELL       CLOUDY    75  71  87 CALM      30.09R
MORRISTOWN     MOCLDY    79  70  73 E5        30.09F
SOMERVILLE     PTCLDY    83  68  60 NW6       30.08R
SUSSEX         CLOUDY    75  68  78 SW3       30.10F
ANDOVER          N/A     75  69  81 SW3       30.11F
TRENTON        CLEAR     83  66  56 SW8       30.10R
MILLVILLE      CLEAR     76  55  48 CALM      30.14R
ATLANTIC CITY  CLEAR     75  47  36 S8        30.14S
WRIGHTSTOWN    CLEAR     82  66  59 S9        30.09R
TOMS RIVER     CLEAR     79  54  41 S8        30.13S
BELMAR         CLEAR     81  63  54 S10       30.12S
$$

PAZ047>061-062-071-290100-
EASTERN PENNSYLVANIA

CITY           SKY/WX    TMP DP  RH WIND       PRES   REMARKS
PHILADELPHIA   PTCLDY    82  64  54 S8        30.12R
ALLENTOWN      CLEAR     86  65  49 S6        30.10R
SCRANTON       CLEAR     82  67  60 VRB5      30.11R
$$

CTZ002-004>006-009-010-012-RIZ004-006-007-MAZ004-011-015-290100-
SOUTHERN NEW ENGLAND
 IN CT

CITY           SKY/WX    TMP DP  RH WIND       PRES   REMARKS
BRADLEY INTL   MOCLDY    84  67  56 S15       30.06R
HARTFORD       CLEAR     83  67  58 S9        30.07R
DANBURY        PTCLDY    79  65  62 S3        30.12R
WTRBRY/OXFORD  PTCLDY    79  63  57 SW8       30.13R
BRIDGEPORT     CLEAR     76  63  64 SW7       30.10R
MERIDEN        CLEAR     80  64  58 S7        30.09R
NEW HAVEN      CLEAR     73  62  68 SW6       30.11R
CHESTER        FAIR      75  64  69 VRB7G14   30.12R
GROTON         CLOUDY    68  63  84 SW7       30.10S
WILLIMANTIC    PTCLDY    83  66  56 S5        30.09R

 IN RI

CITY           SKY/WX    TMP DP  RH WIND       PRES   REMARKS
PROVIDENCE     MOCLDY    80  65  59 SW9       30.09R
BLOCK ISLAND   CLOUDY    63  56  78 SW20G26   30.12S
WESTERLY       CLOUDY    73  59  61 SW7       30.12R

 IN MA

CITY           SKY/WX    TMP DP  RH WIND       PRES   REMARKS
BOSTON         MOCLDY    84  66  54 SW10      30.04R
WORCESTER      CLEAR     80  65  59 SW12      30.11R
WESTFIELD      PTCLDY    83  69  62 S6        30.06R
PROVINCETOWN   CLEAR     65  60  84 S13       30.09R
NANTUCKET      CLEAR     61  56  83 SW8       30.13S
$$

ANZ330-335-338-340-345-350-353-355-290100-
COASTAL MARINE OBSERVATIONS


STATION/POSITION TIME  SKY/WX   TEMP    WIND        PRES    VSBY  WAVE
                                AIR SEA DIR/SP/G                  HT/PER
                 (UTC)          (F)     (DEG/KT/KT) (MB)    (MI)  (FT/S)
NY HARB ENTRANCE 2250            65 59  200/ 19/ 23 1018.6          4/ 5
20S FIRE ISLAND  2250            64 60  210/ 16/ 17 1019.5          4/ 5
GREAT SOUTH BAY  2300            69 70  240/ 10/ 14   N/A
23 SSW MONTAUK P 2350            61 57  230/ 10/ 12 1019.9          3/ 5
15 E BARNEGAT LI 2322               59                N/A           3/ 8
HUDSON CANYON    2250            62 59              1021.4          3/ 8
KINGS POINT      2300                                 N/A
EXECUTION ROCKS  NOT AVBL
CENTRAL LI SOUND 2300            69     200/ 12/ 14   N/A           1/ 3
EASTERN LI SOUND 2300            66 54  210/  8/ 10   N/A
ROBBINS REEF     2312            81                   N/A
$$


>>>>>>>>>>>>>>>>>>>>>>>>>>>> KEY <<<<<<<<<<<<<<<<<<<<<<<<<<<
>                                                          <
>     SKY/WX - SKY CONDITION/PRESENT WEATHER               <
>     TMP    - TEMPERATURE IN FAHRENHEIT                   <
>     DP     - DEWPOINT IN FAHRENHEIT                      <
>     RH     - RELATIVE HUMIDITY IN PERCENT                <
>     WIND   - DIRECTION AND SPEED IN MPH                  <
>     PRES   - MEAN SEA LEVEL PRESSURE IN INCHES OF HG     <
>     WCI    - WIND CHILL INDEX                            <
>     VSB    - VISIBILITY IN MILES                         <
>     HX     - HEAT INDEX                                  <
>     TC     - TEMPERATURE IN CELSIUS                      <
>     VRB    - VARIABLE WIND DIRECTION                     <
>                                                          <
>>>>>>>>>>>>>>>>>>>>>>>>>>>> KEY <<<<<<<<<<<<<<<<<<<<<<<<<<<






USA.gov is the U.S. government's official web portal to all federal, state and local government web resources and services.